Weather History for KAQO - December, 2011

Change the Weather History Date:

Friday, December 23, 2011

  Actual Average (KBMQ) Record (KBMQ)
Temperature  
Mean Temperature 40 °F -  
Max Temperature 44 °F 55 °F 73 °F (2005)
Min Temperature 37 °F 34 °F 21 °F (1998)
Degree Days  
Heating Degree Days 24    
Moisture  
Dew Point 34 °F    
Average Humidity 77    
Maximum Humidity 87    
Minimum Humidity 70    
Precipitation  
Precipitation 0.00 in - - ()
Sea Level Pressure  
Sea Level Pressure 30.39 in    
Wind  
Wind Speed 11 mph (NNE)    
Max Wind Speed 18 mph    
Max Gust Speed 22 mph    
Visibility 10 miles    
Events      
Averages and records for this station are not official NWS values.
T = Trace of Precipitation, MM = Missing Value Source: NWS Daily Summary

Daily Weather History Graph

Daily Weather History Graph

Search for Another Location

Airport or City:

Trip Planner

Search our weather history database for the weather conditions in past years. The results will help you decide how hot, cold, wet, or windy it might be!

Date:

Astronomy

Dec. 23, 2011 Rise Set
Actual Time 7:29 AM CST 5:38 PM CST
Civil Twilight 7:02 AM CST 6:04 PM CST
Nautical Twilight 6:32 AM CST 6:35 PM CST
Astronomical Twilight 6:02 AM CST 7:04 PM CST
Moon 6:19 AM CST 4:49 PM CST
Length of Visible Light 11h 02m
Length of Day
10h 09m
Waning Crescent, 1% of the Moon is Illuminated
Dec 23
Waning Crescent
Dec 24
New
Jan 1
First Quarter
Jan 9
Full
Jan 16
Last Quarter

Hourly Weather History & Observations

Time (CST) Temp. Windchill Dew Point Humidity Pressure Visibility Wind Dir Wind Speed Gust Speed Precip Events Conditions
12:15 AM 42.8 °F 35.4 °F 33.8 °F 70% 30.34 in 10.0 mi North 15.0 mph 19.6 mph N/A   Overcast
12:55 AM 41.0 °F 32.2 °F 33.8 °F 76% 30.34 in 10.0 mi North 18.4 mph 21.9 mph N/A   Overcast
1:15 AM 41.0 °F 34.3 °F 33.8 °F 76% 30.35 in 10.0 mi North 11.5 mph - N/A   Overcast
1:35 AM 41.0 °F 34.3 °F 33.8 °F 76% 30.35 in 10.0 mi North 11.5 mph - N/A   Overcast
1:55 AM 41.0 °F 34.3 °F 33.8 °F 76% 30.36 in 10.0 mi North 11.5 mph - N/A   Overcast
2:15 AM 41.0 °F 33.1 °F 33.8 °F 76% 30.36 in 10.0 mi North 15.0 mph - N/A   Overcast
2:35 AM 41.0 °F 33.9 °F 33.8 °F 76% 30.36 in 10.0 mi NNE 12.7 mph 19.6 mph N/A   Overcast
2:55 AM 39.2 °F 31.6 °F 33.8 °F 81% 30.35 in 10.0 mi North 12.7 mph - N/A   Overcast
3:15 AM 41.0 °F 32.8 °F 33.8 °F 76% 30.35 in 10.0 mi North 16.1 mph 20.7 mph N/A   Overcast
3:35 AM 41.0 °F 35.2 °F 33.8 °F 76% 30.35 in 10.0 mi North 9.2 mph - N/A   Overcast
3:55 AM 39.2 °F 33.0 °F 33.8 °F 81% 30.36 in 10.0 mi North 9.2 mph - N/A   Overcast
4:15 AM 39.2 °F 32.5 °F 33.8 °F 81% 30.35 in 10.0 mi North 10.4 mph - N/A   Overcast
4:35 AM 39.2 °F 33.6 °F 33.8 °F 81% 30.36 in 10.0 mi North 8.1 mph - N/A   Overcast
4:55 AM 39.2 °F 32.5 °F 33.8 °F 81% 30.37 in 10.0 mi North 10.4 mph - N/A   Overcast
5:15 AM 39.2 °F 32.5 °F 33.8 °F 81% 30.37 in 10.0 mi North 10.4 mph - N/A   Overcast
5:35 AM 39.2 °F 33.6 °F 33.8 °F 81% 30.38 in 10.0 mi North 8.1 mph - N/A   Overcast
5:55 AM 39.2 °F 33.0 °F 33.8 °F 81% 30.39 in 10.0 mi North 9.2 mph - N/A   Overcast
6:15 AM 39.2 °F 32.0 °F 33.8 °F 81% 30.39 in 10.0 mi North 11.5 mph - N/A   Overcast
6:35 AM 39.2 °F 33.6 °F 33.8 °F 81% 30.40 in 10.0 mi North 8.1 mph - N/A   Overcast
6:55 AM 39.2 °F 32.0 °F 33.8 °F 81% 30.40 in 10.0 mi North 11.5 mph - N/A   Overcast
7:15 AM 39.2 °F 33.0 °F 33.8 °F 81% 30.41 in 10.0 mi North 9.2 mph - N/A   Overcast
7:35 AM 37.4 °F 29.8 °F 33.8 °F 87% 30.42 in 10.0 mi North 11.5 mph - N/A   Overcast
7:55 AM 37.4 °F 31.4 °F 32.0 °F 81% 30.43 in 10.0 mi NNE 8.1 mph - N/A   Overcast
8:15 AM 37.4 °F 30.8 °F 33.8 °F 87% 30.43 in 10.0 mi North 9.2 mph - N/A   Overcast
8:35 AM 37.4 °F 31.4 °F 33.8 °F 87% 30.44 in 10.0 mi North 8.1 mph - N/A   Overcast
8:55 AM 37.4 °F 29.8 °F 32.0 °F 81% 30.45 in 10.0 mi North 11.5 mph - N/A   Overcast
9:15 AM 37.4 °F 30.8 °F 33.8 °F 87% 30.45 in 10.0 mi NNE 9.2 mph - N/A   Overcast
9:35 AM 37.4 °F 29.8 °F 32.0 °F 81% 30.46 in 10.0 mi NNE 11.5 mph - N/A   Overcast
9:55 AM 39.2 °F 33.0 °F 32.0 °F 75% 30.46 in 10.0 mi NNE 9.2 mph - N/A   Overcast
10:15 AM 39.2 °F 31.6 °F 33.8 °F 81% 30.47 in 10.0 mi North 12.7 mph - N/A   Overcast
10:35 AM 39.2 °F 33.0 °F 33.8 °F 81% 30.47 in 10.0 mi North 9.2 mph - N/A   Overcast
10:55 AM 39.2 °F 32.5 °F 33.8 °F 81% 30.46 in 10.0 mi North 10.4 mph - N/A   Overcast
11:15 AM 39.2 °F 34.2 °F 32.0 °F 75% 30.46 in 10.0 mi NNE 6.9 mph - N/A   Overcast
11:35 AM 39.2 °F 33.0 °F 33.8 °F 81% 30.45 in 10.0 mi NNE 9.2 mph - N/A   Overcast
12:15 PM 41.0 °F 36.4 °F 32.0 °F 70% 30.42 in 10.0 mi NNE 6.9 mph - N/A   Overcast
12:35 PM 41.0 °F 36.4 °F 33.8 °F 76% 30.41 in 10.0 mi NNE 6.9 mph - N/A   Overcast
12:55 PM 41.0 °F 35.2 °F 33.8 °F 76% 30.39 in 10.0 mi ENE 9.2 mph - N/A   Overcast
1:15 PM 42.8 °F 39.3 °F 33.8 °F 70% 30.38 in 10.0 mi NNE 5.8 mph - N/A   Overcast
1:35 PM 42.8 °F 38.0 °F 33.8 °F 70% 30.38 in 10.0 mi NE 8.1 mph - N/A   Overcast
1:55 PM 42.8 °F 37.0 °F 33.8 °F 70% 30.37 in 10.0 mi NE 10.4 mph - N/A   Overcast
2:15 PM 42.8 °F 37.5 °F 33.8 °F 70% 30.36 in 10.0 mi East 9.2 mph - N/A   Overcast
2:55 PM 42.8 °F 39.3 °F 33.8 °F 70% 30.36 in 10.0 mi NE 5.8 mph - N/A   Overcast
3:15 PM 42.8 °F 39.3 °F 33.8 °F 70% 30.35 in 10.0 mi NE 5.8 mph - N/A   Overcast
3:35 PM 42.8 °F 38.6 °F 33.8 °F 70% 30.35 in 10.0 mi NE 6.9 mph - N/A   Overcast
3:55 PM 42.8 °F 39.3 °F 33.8 °F 70% 30.34 in 10.0 mi NNE 5.8 mph - N/A   Overcast
4:35 PM 44.6 °F 41.4 °F 35.6 °F 71% 30.35 in 10.0 mi NE 5.8 mph - N/A   Overcast
4:55 PM 44.6 °F 41.4 °F 35.6 °F 71% 30.35 in 10.0 mi ENE 5.8 mph - N/A   Overcast
5:15 PM 44.6 °F 40.7 °F 35.6 °F 71% 30.36 in 10.0 mi East 6.9 mph - N/A   Overcast
5:35 PM 44.6 °F 42.2 °F 35.6 °F 71% 30.36 in 10.0 mi ENE 4.6 mph - N/A   Overcast
5:55 PM 44.6 °F 42.2 °F 35.6 °F 71% 30.37 in 10.0 mi NNE 4.6 mph - N/A   Overcast
6:15 PM 44.6 °F 42.2 °F 35.6 °F 71% 30.37 in 10.0 mi NNE 4.6 mph - N/A   Overcast
6:35 PM 44.6 °F - 35.6 °F 71% 30.39 in 10.0 mi Calm Calm - N/A   Overcast
6:55 PM 42.8 °F 39.3 °F 35.6 °F 76% 30.39 in 10.0 mi NNE 5.8 mph - N/A   Overcast
7:15 PM 42.8 °F 39.3 °F 35.6 °F 76% 30.39 in 10.0 mi NE 5.8 mph - N/A   Overcast
7:35 PM 42.8 °F 38.6 °F 35.6 °F 76% 30.39 in 10.0 mi ENE 6.9 mph - N/A   Overcast
7:55 PM 42.8 °F 41.1 °F 35.6 °F 76% 30.39 in 10.0 mi ENE 3.5 mph - N/A   Overcast
8:35 PM 42.8 °F - 37.4 °F 81% 30.40 in 10.0 mi Calm Calm - N/A   Overcast
8:55 PM 42.8 °F 40.1 °F 37.4 °F 81% 30.41 in 10.0 mi NNE 4.6 mph - N/A   Overcast
9:15 PM 42.8 °F 39.3 °F 37.4 °F 81% 30.41 in 10.0 mi NNE 5.8 mph - N/A   Overcast
9:35 PM 42.8 °F 41.1 °F 37.4 °F 81% 30.41 in 10.0 mi NE 3.5 mph - N/A   Overcast
10:15 PM 44.6 °F 43.1 °F 37.4 °F 76% 30.41 in 10.0 mi NE 3.5 mph - N/A   Overcast
10:35 PM 44.6 °F 40.7 °F 37.4 °F 76% 30.41 in 10.0 mi NE 6.9 mph - N/A   Overcast
10:55 PM 44.6 °F 39.2 °F 37.4 °F 76% 30.41 in 10.0 mi NE 10.4 mph - N/A   Overcast
11:15 PM 44.6 °F 40.2 °F 37.4 °F 76% 30.41 in 10.0 mi ENE 8.1 mph - N/A   Overcast
11:35 PM 42.8 °F 36.6 °F 37.4 °F 81% 30.40 in 10.0 mi ENE 11.5 mph - N/A   Overcast
11:55 PM 42.8 °F 37.5 °F 35.6 °F 76% 30.40 in 10.0 mi NE 9.2 mph - N/A   Overcast